�N����,����,�~����,�C��,���x,�C��,����,���ϕ���,�ő�u�ԕ���,�ő厞����,���˗�,�I�_���x,�n�����x,�ő啗���N��,DTYPE
"20/09/18","00:10",0.0,24.8,93.9,1004.5,318.7,0.5,1.3,342.3,0.00,23.8,25.4,"00:00:32",1
"20/09/18","00:20",0.0,24.8,93.9,1004.3,324.7,0.6,1.6,319.1,0.00,23.8,25.5,"00:10:16",1
"20/09/18","00:30",0.0,24.7,94.0,1004.3,325.1,0.7,1.1,5.9,0.00,23.7,25.6,"00:26:24",1
"20/09/18","00:40",0.0,24.7,94.1,1004.1,333.1,0.2,0.6,293.4,0.00,23.7,25.5,"00:30:16",1
"20/09/18","00:50",0.0,24.8,94.1,1004.1,330.3,0.6,1.4,332.6,0.00,23.8,25.6,"00:44:16",1
"20/09/18","01:00",0.0,24.8,94.1,1004.3,321.1,0.8,1.3,338.7,0.00,23.8,25.5,"00:53:52",1
"20/09/18","01:10",0.0,24.7,94.2,1004.1,304.8,0.8,1.2,341.7,0.00,23.7,25.5,"01:00:16",1
"20/09/18","01:20",0.0,24.7,94.3,1004.3,324.2,0.7,1.2,313.8,0.00,23.8,25.5,"01:16:48",1
"20/09/18","01:30",0.0,24.7,94.3,1004.1,316.9,0.6,1.3,337.1,0.00,23.8,25.4,"01:20:08",1
"20/09/18","01:40",0.0,24.7,94.3,1004.3,303.4,0.6,1.2,240.8,0.00,23.8,25.7,"01:30:48",1
"20/09/18","01:50",0.0,24.7,94.4,1004.3,315.3,0.6,1.6,342.3,0.00,23.8,25.4,"01:42:16",1
"20/09/18","02:00",0.0,24.7,94.5,1004.1,320.7,0.7,1.3,339.4,0.00,23.8,25.5,"01:50:02",1
"20/09/18","02:10",0.0,24.7,94.5,1004.1,327.4,0.8,1.6,340.5,0.00,23.8,25.5,"02:00:16",1
"20/09/18","02:20",0.0,24.7,94.5,1004.1,319.0,0.7,1.7,310.0,0.00,23.8,25.3,"02:19:04",1
"20/09/18","02:30",0.0,24.7,94.6,1003.8,317.8,0.7,1.7,41.4,0.00,23.8,25.4,"02:28:56",1
"20/09/18","02:40",0.0,25.1,94.7,1004.1,316.5,1.1,4.0,327.9,0.00,24.2,25.2,"02:37:04",1
"20/09/18","02:50",0.0,25.7,94.4,1003.8,262.9,1.0,2.9,224.7,0.00,24.8,25.4,"02:41:12",1
"20/09/18","03:00",0.0,25.7,94.4,1003.8,331.2,0.8,2.5,219.1,0.00,24.8,25.4,"02:52:32",1
"20/09/18","03:10",0.0,25.8,94.3,1003.4,265.6,1.0,2.5,7.2,0.00,24.9,25.4,"03:00:56",1
"20/09/18","03:20",0.0,25.7,93.6,1003.8,236.2,0.8,2.4,206.5,0.00,24.6,25.2,"03:19:20",1
"20/09/18","03:30",0.0,25.6,93.3,1003.6,251.1,1.3,3.3,231.6,0.00,24.5,25.3,"03:27:52",1
"20/09/18","03:40",0.0,25.7,93.0,1003.8,207.3,2.2,6.2,230.6,0.00,24.5,25.4,"03:37:44",1
"20/09/18","03:50",0.0,26.1,92.3,1003.8,234.5,2.0,3.9,248.2,0.00,24.8,25.2,"03:40:40",1
"20/09/18","04:00",0.0,26.4,91.4,1003.6,229.7,2.0,4.5,230.4,0.00,24.9,25.2,"03:50:32",1
"20/09/18","04:10",0.0,26.4,90.8,1003.6,234.2,1.2,3.4,226.3,0.00,24.8,25.5,"04:06:40",1
"20/09/18","04:20",0.0,26.5,90.0,1003.6,246.9,1.5,3.5,232.5,0.00,24.8,25.4,"04:15:28",1
"20/09/18","04:30",0.0,26.6,89.1,1003.6,259.5,1.2,3.1,233.9,0.00,24.7,25.4,"04:24:56",1
"20/09/18","04:40",0.0,26.6,88.3,1003.8,272.9,0.8,2.6,206.5,0.00,24.5,25.3,"04:39:20",1
"20/09/18","04:50",0.0,26.7,87.7,1003.6,248.2,0.7,3.2,232.2,0.00,24.5,25.2,"04:48:00",1
"20/09/18","05:00",0.0,26.7,87.2,1003.6,258.9,1.2,3.3,234.3,0.00,24.4,25.2,"04:59:36",1
"20/09/18","05:10",0.0,26.8,86.6,1003.8,253.3,1.0,3.3,247.1,0.00,24.4,25.4,"05:04:32",1
"20/09/18","05:20",0.0,26.8,86.1,1003.8,285.1,1.5,2.8,350.7,0.00,24.3,25.2,"05:13:28",1
"20/09/18","05:30",0.0,26.9,85.4,1003.6,259.1,1.2,3.9,235.6,0.00,24.3,25.3,"05:20:32",1
"20/09/18","05:40",0.0,27.0,84.8,1003.8,278.6,1.3,3.5,230.1,0.00,24.3,25.2,"05:30:48",1
"20/09/18","05:50",0.0,27.1,84.1,1004.1,261.0,1.6,4.0,229.3,0.00,24.2,25.2,"05:41:44",1
"20/09/18","06:00",0.0,27.1,83.6,1003.8,268.3,1.0,1.9,207.2,0.00,24.1,25.3,"05:50:16",1
"20/09/18","06:10",0.0,27.1,83.4,1004.1,296.7,1.0,2.7,247.0,0.00,24.1,25.1,"06:01:36",1
"20/09/18","06:20",0.0,27.2,83.0,1004.1,296.8,1.2,4.3,345.9,0.00,24.1,25.5,"06:17:20",1
"20/09/18","06:30",0.0,27.3,82.4,1003.8,291.0,1.5,2.7,347.0,0.01,24.1,25.3,"06:29:04",1
"20/09/18","06:40",0.0,27.4,82.1,1004.3,278.8,1.2,1.9,245.3,0.02,24.1,25.4,"06:33:04",1
"20/09/18","06:50",0.0,27.4,81.8,1004.1,275.3,1.1,2.9,289.4,0.03,24.1,25.4,"06:41:28",1
"20/09/18","07:00",0.0,27.5,81.3,1003.6,246.1,1.2,4.2,192.4,0.03,24.0,25.3,"06:57:20",1
"20/09/18","07:10",0.0,27.6,80.5,1003.6,260.2,1.5,2.9,153.7,0.03,24.0,25.4,"07:09:52",1
"20/09/18","07:20",0.0,27.9,80.1,1003.6,289.3,1.1,2.6,180.5,0.04,24.2,25.4,"07:10:08",1
"20/09/18","07:30",0.0,27.9,79.8,1003.6,300.2,1.1,2.5,334.9,0.04,24.1,25.3,"07:20:08",1
"20/09/18","07:40",0.0,27.8,79.6,1003.8,290.8,1.6,4.1,352.1,0.07,24.0,25.5,"07:32:32",1
"20/09/18","07:50",0.0,27.9,79.3,1004.1,235.6,1.6,5.2,208.6,0.07,24.0,25.6,"07:46:24",1
"20/09/18","08:00",0.0,28.0,78.8,1004.3,239.9,1.2,2.9,209.9,0.05,24.0,25.5,"07:50:32",1
"20/09/18","08:10",0.0,28.1,78.8,1004.1,260.2,1.6,4.8,319.7,0.04,24.1,25.6,"08:03:12",1
"20/09/18","08:20",0.0,28.1,78.9,1003.6,234.7,1.6,3.9,221.7,0.05,24.1,25.4,"08:12:16",1
"20/09/18","08:30",0.0,28.1,78.8,1004.3,238.4,1.3,3.5,213.4,0.06,24.1,25.4,"08:24:32",1
"20/09/18","08:40",0.0,28.2,78.9,1004.1,237.1,1.3,2.9,218.1,0.06,24.2,25.7,"08:37:28",1
"20/09/18","08:50",0.0,28.2,78.8,1004.3,266.0,1.1,2.8,63.1,0.08,24.2,25.7,"08:41:28",1
"20/09/18","09:00",0.0,28.3,78.6,1004.1,253.0,1.1,2.5,348.3,0.08,24.3,25.7,"08:52:24",1
"20/09/18","09:10",0.0,28.3,78.3,1003.8,256.0,1.6,4.0,309.6,0.07,24.2,25.9,"09:00:40",1
"20/09/18","09:20",0.0,28.4,78.3,1004.1,257.1,1.1,3.2,229.7,0.07,24.3,25.7,"09:19:28",1
"20/09/18","09:30",0.0,28.5,78.5,1003.8,240.8,0.8,2.2,237.6,0.06,24.4,25.7,"09:24:24",1
"20/09/18","09:40",0.0,28.4,78.6,1004.1,271.5,1.0,1.9,284.6,0.07,24.4,26.1,"09:34:08",1
"20/09/18","09:50",0.0,28.4,78.2,1003.8,279.6,1.1,3.3,292.9,0.08,24.3,25.9,"09:42:40",1
"20/09/18","10:00",0.0,28.3,78.0,1004.1,246.2,2.1,5.8,218.1,0.07,24.1,26.1,"09:56:32",1
"20/09/18","10:10",0.0,28.3,78.3,1004.1,244.5,2.0,5.2,222.0,0.05,24.2,26.1,"10:04:48",1
"20/09/18","10:20",0.0,28.3,78.6,1003.8,236.6,2.5,5.7,219.8,0.10,24.3,26.0,"10:16:32",1
"20/09/18","10:30",0.0,28.4,78.2,1003.8,232.4,1.6,4.9,228.7,0.10,24.3,26.0,"10:26:40",1
"20/09/18","10:40",0.0,28.6,77.7,1003.1,235.5,1.5,3.3,230.4,0.11,24.4,26.0,"10:34:00",1
"20/09/18","10:50",0.0,28.7,77.8,1003.4,258.6,0.8,2.1,230.8,0.07,24.5,26.1,"10:48:00",1
"20/09/18","11:00",0.0,28.9,77.2,1003.1,252.2,1.3,4.1,230.7,0.15,24.5,26.1,"10:57:52",1
"20/09/18","11:10",0.0,28.7,77.0,1003.1,254.5,1.5,3.3,227.4,0.07,24.3,26.3,"11:01:44",1
"20/09/18","11:20",0.0,28.4,77.7,1002.9,257.5,1.6,4.4,234.4,0.05,24.2,26.1,"11:13:52",1
"20/09/18","11:30",0.0,28.3,78.3,1002.9,252.5,1.5,3.2,220.6,0.09,24.2,26.3,"11:25:12",1
"20/09/18","11:40",0.0,28.7,78.7,1002.6,295.0,1.0,3.1,346.6,0.14,24.7,26.3,"11:32:16",1
"20/09/18","11:50",0.0,28.7,78.0,1003.4,266.2,1.3,2.8,218.3,0.14,24.5,26.1,"11:42:08",1
"20/09/18","12:00",0.0,28.8,77.8,1002.6,278.6,1.3,3.4,229.2,0.12,24.6,26.2,"11:55:04",1
"20/09/18","12:10",0.0,29.0,78.0,1003.1,282.6,1.0,3.3,227.1,0.16,24.8,26.4,"12:04:16",1
"20/09/18","12:20",0.0,29.4,77.7,1003.4,247.4,0.8,2.2,252.3,0.16,25.1,26.3,"12:10:08",1
"20/09/18","12:30",0.0,29.3,76.8,1003.6,252.2,1.0,3.4,212.2,0.12,24.8,26.6,"12:23:28",1
"20/09/18","12:40",0.0,29.7,76.2,1003.4,233.7,0.6,2.2,229.1,0.16,25.1,26.7,"12:32:08",1
"20/09/18","12:50",0.0,29.7,75.7,1003.6,273.9,1.1,2.5,198.2,0.16,25.0,26.9,"12:43:44",1
"20/09/18","13:00",0.0,30.2,74.8,1003.4,341.1,0.7,1.6,326.8,0.25,25.3,26.7,"12:51:52",1
"20/09/18","13:10",0.0,30.4,73.1,1003.8,4.6,1.0,2.9,359.6,0.17,25.1,26.9,"13:00:02",1
"20/09/18","13:20",0.0,30.1,73.4,1003.8,266.4,1.6,3.9,231.7,0.14,24.9,27.0,"13:17:44",1
"20/09/18","13:30",0.0,29.9,73.7,1003.6,211.2,1.7,4.1,195.7,0.10,24.7,26.9,"13:29:44",1
"20/09/18","13:40",0.0,29.8,74.5,1003.1,244.0,1.5,3.5,215.6,0.10,24.8,27.1,"13:30:32",1
"20/09/18","13:50",0.0,30.1,73.9,1003.1,232.6,1.3,4.4,236.2,0.18,25.0,27.1,"13:40:02",1
"20/09/18","14:00",0.0,29.8,73.9,1002.6,239.0,1.7,5.4,222.3,0.12,24.7,27.2,"13:50:02",1
"20/09/18","14:10",3.0,29.0,77.2,1002.2,228.7,1.7,3.7,227.3,0.05,24.6,27.0,"14:00:08",1
"20/09/18","14:20",0.2,27.8,80.5,1002.4,253.3,2.0,5.5,188.0,0.10,24.2,26.9,"14:18:00",1
"20/09/18","14:30",0.0,27.4,82.8,1002.6,259.5,1.2,2.7,239.7,0.16,24.3,27.0,"14:23:20",1
"20/09/18","14:40",0.0,27.8,83.9,1002.4,263.3,0.6,1.3,224.9,0.21,24.9,27.0,"14:38:08",1
"20/09/18","14:50",0.0,27.4,83.9,1002.9,261.6,1.1,2.2,238.1,0.21,24.5,26.9,"14:44:16",1
"20/09/18","15:00",0.0,26.6,83.6,1002.9,260.5,1.5,3.5,220.3,0.19,23.6,27.1,"14:58:48",1
"20/09/18","15:10",0.0,26.6,83.6,1002.9,265.5,1.5,4.0,237.7,0.20,23.6,27.0,"15:00:56",1
"20/09/18","15:20",0.0,26.7,82.9,1002.9,298.3,1.7,4.4,342.7,0.24,23.6,27.2,"15:19:04",1
"20/09/18","15:30",0.0,26.3,82.9,1003.1,327.1,2.1,6.3,348.9,0.18,23.2,27.0,"15:20:16",1
"20/09/18","15:40",0.0,26.0,82.9,1003.6,322.4,2.1,3.7,337.8,0.12,22.9,27.0,"15:32:24",1
"20/09/18","15:50",0.0,25.5,82.9,1003.6,337.2,2.3,4.3,9.7,0.11,22.4,27.0,"15:40:16",1
"20/09/18","16:00",0.0,25.6,83.1,1003.8,330.4,2.2,5.6,344.6,0.17,22.6,27.0,"15:51:12",1
"20/09/18","16:10",0.0,25.2,82.8,1003.8,317.1,1.8,3.7,322.9,0.11,22.1,27.0,"16:07:04",1
"20/09/18","16:20",0.0,25.0,83.3,1004.1,311.5,1.5,4.5,330.3,0.06,22.0,27.0,"16:12:48",1
"20/09/18","16:30",0.0,24.6,83.8,1004.5,338.0,2.2,4.3,337.9,0.08,21.7,26.9,"16:26:48",1
"20/09/18","16:40",0.0,23.9,84.6,1004.3,332.0,2.5,5.7,347.9,0.04,21.2,26.7,"16:34:00",1
"20/09/18","16:50",0.0,23.7,85.2,1004.8,325.1,1.8,3.6,325.5,0.02,21.1,26.7,"16:47:36",1
"20/09/18","17:00",0.0,23.4,86.1,1005.0,335.9,2.0,4.7,338.4,0.02,21.0,26.5,"16:50:56",1
"20/09/18","17:10",0.0,23.1,86.8,1005.0,333.3,2.7,5.4,343.1,0.02,20.8,26.6,"17:02:56",1
"20/09/18","17:20",0.0,23.0,87.1,1005.5,324.8,2.0,3.3,318.1,0.00,20.8,26.3,"17:13:36",1
"20/09/18","17:30",0.0,22.9,87.4,1005.2,329.1,2.3,4.1,345.7,0.00,20.7,26.3,"17:27:44",1
"20/09/18","17:40",0.0,22.9,87.4,1005.5,323.4,1.8,4.0,330.1,0.00,20.7,26.3,"17:30:24",1
"20/09/18","17:50",0.0,22.8,87.5,1005.5,327.9,2.1,3.5,327.5,0.00,20.7,26.1,"17:45:52",1
"20/09/18","18:00",0.0,22.7,87.5,1005.5,329.0,2.3,4.2,336.7,0.00,20.6,26.1,"17:53:36",1
"20/09/18","18:10",0.0,22.8,87.4,1005.7,322.1,1.3,2.7,349.0,0.00,20.6,26.1,"18:08:16",1
"20/09/18","18:20",0.0,22.7,87.5,1006.0,335.2,1.6,2.6,333.8,0.00,20.6,25.8,"18:10:24",1
"20/09/18","18:30",0.0,22.6,87.8,1005.7,328.2,1.6,2.7,332.3,0.00,20.5,25.7,"18:25:28",1
"20/09/18","18:40",0.0,22.5,88.0,1006.2,334.3,1.3,2.7,331.2,0.00,20.5,25.8,"18:34:00",1
"20/09/18","18:50",0.0,22.5,88.2,1006.2,328.3,1.7,2.8,327.4,0.00,20.5,25.9,"18:41:44",1
"20/09/18","19:00",0.0,22.5,88.4,1006.7,326.1,1.8,2.9,339.9,0.00,20.5,25.5,"18:51:12",1
"20/09/18","19:10",0.0,22.4,88.5,1006.9,329.0,1.7,3.2,336.7,0.00,20.4,25.5,"19:05:36",1
"20/09/18","19:20",0.0,22.3,88.5,1007.1,324.3,1.8,3.1,330.2,0.00,20.3,25.4,"19:12:56",1
"20/09/18","19:30",0.0,22.3,88.5,1007.1,329.0,1.7,2.7,327.3,0.00,20.3,25.5,"19:23:36",1
"20/09/18","19:40",0.0,22.1,88.6,1007.4,303.1,1.2,2.2,317.3,0.00,20.2,25.2,"19:35:12",1
"20/09/18","19:50",0.0,22.1,88.7,1007.4,317.6,1.2,2.4,305.6,0.00,20.2,25.5,"19:40:02",1
"20/09/18","20:00",0.0,22.1,88.7,1007.6,322.6,1.5,2.7,337.8,0.00,20.2,25.2,"19:57:28",1
"20/09/18","20:10",0.0,22.1,88.8,1007.8,315.9,1.6,3.3,344.8,0.00,20.2,25.4,"20:05:04",1
"20/09/18","20:20",0.0,22.0,88.7,1007.8,327.2,2.2,3.4,339.0,0.00,20.1,25.3,"20:13:44",1
"20/09/18","20:30",0.0,21.9,88.5,1008.1,316.4,2.0,3.4,338.3,0.00,20.0,25.1,"20:24:32",1
"20/09/18","20:40",0.0,21.9,88.3,1008.3,315.4,1.7,3.1,329.0,0.00,19.9,25.1,"20:39:52",1
"20/09/18","20:50",0.0,22.0,88.0,1008.3,304.3,1.2,2.8,337.5,0.00,20.0,25.1,"20:40:08",1
"20/09/18","21:00",0.0,22.0,87.8,1008.3,286.9,1.0,2.4,244.3,0.00,19.9,25.1,"20:50:40",1
"20/09/18","21:10",0.0,22.0,87.6,1008.3,337.2,1.0,1.6,339.7,0.00,19.9,25.0,"21:04:24",1
"20/09/18","21:20",0.0,21.8,87.7,1008.3,324.9,1.2,1.9,337.3,0.00,19.7,25.0,"21:13:44",1
"20/09/18","21:30",0.0,21.6,87.8,1008.3,317.3,1.1,1.9,334.3,0.00,19.5,24.9,"21:27:20",1
"20/09/18","21:40",0.0,21.5,88.2,1008.1,327.0,1.0,1.8,341.3,0.00,19.5,24.7,"21:37:44",1
"20/09/18","21:50",0.0,21.3,88.4,1008.1,329.8,1.6,3.1,335.8,0.00,19.3,24.8,"21:47:52",1
"20/09/18","22:00",0.0,21.2,88.7,1008.1,332.8,1.7,3.1,338.8,0.00,19.3,24.8,"21:56:32",1
"20/09/18","22:10",0.0,21.1,88.8,1008.3,327.6,1.7,2.7,348.9,0.00,19.2,24.6,"22:02:16",1
"20/09/18","22:20",0.0,20.9,89.1,1008.6,325.4,1.5,2.5,338.3,0.00,19.1,24.7,"22:10:56",1
"20/09/18","22:30",0.0,20.9,89.2,1008.6,332.1,1.6,2.7,334.0,0.00,19.1,24.6,"22:22:32",1
"20/09/18","22:40",0.0,20.9,89.4,1008.8,332.6,2.0,3.2,344.4,0.00,19.1,24.4,"22:31:20",1
"20/09/18","22:50",0.0,20.7,89.6,1008.8,331.1,2.7,4.5,344.3,0.00,19.0,24.4,"22:45:04",1
"20/09/18","23:00",0.0,20.8,89.7,1008.6,333.4,3.1,6.2,329.3,0.00,19.1,24.3,"22:53:52",1
"20/09/18","23:10",0.0,20.8,89.8,1008.6,328.2,2.7,4.7,333.2,0.00,19.1,24.3,"23:06:16",1
"20/09/18","23:20",0.0,20.8,89.9,1008.8,333.3,2.0,4.0,337.1,0.00,19.1,24.3,"23:12:24",1
"20/09/18","23:30",0.0,20.7,90.1,1008.6,331.9,2.0,3.4,329.1,0.00,19.1,24.4,"23:29:52",1
"20/09/18","23:40",0.0,20.6,90.2,1008.6,321.4,2.5,3.9,343.9,0.00,19.0,24.2,"23:34:40",1
"20/09/18","23:50",0.0,20.6,90.4,1008.6,321.6,2.1,3.3,335.5,0.00,19.0,24.2,"23:46:40",1
"20/09/18","24:00",0.0,20.6,90.4,1008.6,324.7,2.0,4.2,344.0,0.00,19.0,24.1,"23:56:00",1
